Overview Statistics Trail Chart Weather Telemetry Raw packets
 

This is the latest recevied weather packets stored in our database for station/object N4DWK. If no packets are shown the sender has not sent any weather packets the latest 10 day(s).

<< 112 113 114 115 >>
Time Temp. Humidity Pressure Rain* Wind** Luminosity Snow
1787769306 31.11° C 55% 1017.5 hPa 0 mm - 587 W/m² -
1787769006 31.67° C 55% 1017.5 hPa 0 mm - 606 W/m² -
1787768705 31.11° C 56% 1017.6 hPa 0 mm - 610 W/m² -
1787768406 31.11° C 58% 1017.7 hPa 0 mm - 608 W/m² -
1787768106 31.11° C 55% 1017.7 hPa 0 mm - 621 W/m² -
1787767808 31.11° C 57% 1017.8 hPa 0 mm - 606 W/m² -
1787767506 30.56° C 57% 1017.8 hPa 0 mm - 612 W/m² -
1787767206 30° C 61% 1017.8 hPa 0 mm - 624 W/m² -
1787766906 30.56° C 59% 1017.9 hPa 0 mm - 666 W/m² -
1787766606 30.56° C 58% 1017.9 hPa 0 mm - 74 W/m² -
1787766305 30° C 58% 1017.9 hPa 0 mm - 619 W/m² -
1787766006 30° C 59% 1018.1 hPa 0 mm - 619 W/m² -
1787765705 30° C 57% 1018.1 hPa 0 mm - 610 W/m² -
1787765406 30° C 59% 1018.1 hPa 0 mm - 613 W/m² -
1787765106 29.44° C 58% 1018.1 hPa 0 mm - 642 W/m² -
1787764806 30° C 59% 1018.3 hPa 0 mm - 534 W/m² -
1787764505 30° C 57% 1018.4 hPa 0 mm - 615 W/m² -
1787764206 29.44° C 57% 1018.4 hPa 0 mm - 622 W/m² -
1787763905 29.44° C 60% 1018.4 hPa 0 mm - 612 W/m² -
1787763606 29.44° C 59% 1018.5 hPa 0 mm - 606 W/m² -
1787763305 29.44° C 57% 1018.6 hPa 0 mm - 615 W/m² -
1787763005 28.89° C 57% 1018.7 hPa 0 mm - 615 W/m² -
1787762706 28.33° C 59% 1018.7 hPa 0 mm - 144 W/m² -

* Rain latest hour (hover to see other rain measurements)
** Current wind speed in m/s (hover to see current wind gust speed)